Weather Roundup
Issued by NWS

Home | Current Version | Previous Version | Graphics & Text | Print | Product List | Glossary Off
Versions: 1 2 3 4 5 6 7 8 9 10 11 12 13 14 15 16 17 18 19 20 21 22 23 24 25 26 27 28 29 30 31 32 33 34 35 36 37 38 39 40 41 42 43 44 45 46 47 48 49 50

000
NZUS93 KARX 260359
HRRWXR

CURRENT HOURLY OBSERVATIONS ACROSS
MUCH OF THE UPPER MISSISSIPPI VALLEY
NATIONAL WEATHER SERVICE LA CROSSE WI
1000 PM CST SUN JAN 25 2015


...SOUTHEAST MINNESOTA...


CITY           SKY/WX    TMP DP  RH WIND       PRES   REMARKS
ROCHESTER      CLOUDY    23  17  78 SW3       30.01F
ROCHESTER/MAYO CLOUDY    25  16  68 CALM      30.02S
WINONA         CLOUDY    21  18  86 CALM      30.06F
AUSTIN         CLOUDY    25  19  80 W3        30.02S
ALBERT LEA     MOCLDY    21  21 100 CALM      30.01F
DODGE CENTER   CLOUDY    23  19  86 SW5       30.01R WCI  17
PRESTON        CLOUDY    23  18  78 CALM      30.01F
OWATONNA       MOCLDY    21  18  86 CALM      30.01R
FARIBAULT      MOCLDY    19  18  93 CALM      30.02F
$$

...ELSEWHERE IN MINNESOTA...


CITY           SKY/WX    TMP DP  RH WIND       PRES   REMARKS
MINNEAPOLIS    MOCLDY    22  15  75 S8        30.01F WCI  12
INTNL FALLS    CLOUDY    23  13  65 S9        29.80F WCI  13
DULUTH         CLOUDY    18  10  71 S7        29.92F WCI   9
RED WING       MOCLDY    16  12  86 CALM      30.02F
REDWOOD FALLS  CLOUDY    30  26  85 S9        29.98F WCI  22
MANKATO        CLOUDY    25  18  74 S3        30.01F
WORTHINGTON    CLOUDY    30  28  93 S8        29.99S WCI  23
FAIRMONT       CLOUDY    28  21  74 S5        30.01F WCI  23
$$

...SOUTHWEST WISCONSIN...


CITY           SKY/WX    TMP DP  RH WIND       PRES   REMARKS
LA CROSSE      CLOUDY    24  14  65 SE6       30.04F WCI  17
PRAIRIE DU CHI PTCLDY    18  13  80 CALM      30.08F
BOSCOBEL       MOCLDY    21  15  78 CALM      30.07F
LONE ROCK      NOT AVBL
PLATTEVILLE    CLOUDY    19  13  80 CALM      30.04F
FORT MC COY    CLOUDY    20  11  68 CALM      30.06F
VIROQUA        FAIR      20  12  72 E3        30.02F
WIS DELLS      NOT AVBL
$$

...ELSEWHERE IN WISCONSIN...


CITY           SKY/WX    TMP DP  RH WIND       PRES   REMARKS
MILWAUKEE      MOCLDY    25  12  58 NE13      30.02S WCI  14
MADISON        MOCLDY    18  11  74 NE6       30.04F WCI  10
GREEN BAY      CLOUDY    16   9  74 N5        30.06F WCI   9
EAU CLAIRE     NOT AVBL
BLACK RVR FLS  FAIR      17  12  78 CALM      30.04F
MEDFORD        MOCLDY    10   6  83 CALM      29.99F
WAUSAU         PTCLDY    14   5  67 SE6       30.00F WCI   5
WIS RAPIDS     MOCLDY    14   6  70 CALM      30.06F
MARSHFIELD     MOCLDY    15   7  70 S6        30.01F WCI   6
RICE LAKE      MOCLDY    17  11  75 CALM      30.01F
$$

...NORTHEAST IOWA...


CITY           SKY/WX    TMP DP  RH WIND       PRES   REMARKS
DECORAH        CLOUDY    23  16  74 CALM      30.03S
MASON CITY     CLOUDY    25  21  85 CALM      30.04F
CHARLES CITY   CLOUDY    27  25  93 W6        30.04F WCI  20
OELWEIN        CLOUDY    25  19  80 CALM      30.05F
$$

...ELSEWHERE IN IOWA...


CITY           SKY/WX    TMP DP  RH WIND       PRES   REMARKS
DES MOINES     CLOUDY    33  24  69 N7        30.08S WCI  27
IOWA CITY      CLEAR     22  15  75 NE3       30.09F
FORT DODGE     CLOUDY    28  21  74 CALM      30.07S
$$

...NORTHERN ILLINOIS...


CITY           SKY/WX    TMP DP  RH WIND       PRES   REMARKS
CHICAGO-OHARE  PTCLDY    24  15  68 NE12      29.98S WCI  13
CHICAGO-MIDWAY MOCLDY    27  18  69 NE16      29.98R WCI  15
MOLINE         CLEAR     20  13  74 N5        30.06F WCI  13
ROCKFORD       CLEAR     19  10  68 N13       30.04S WCI   6
PEORIA         CLEAR     25  17  72 N9        30.02R WCI  15
$$

NOTE: "FAIR" INDICATES FEW OR NO CLOUDS BELOW 12,000 FEET WITH NO
SIGNIFICANT WEATHER AND/OR OBSTRUCTIONS TO VISIBILITY. WIND
SPEEDS ARE IN MILES-PER-HOUR.



USA.gov is the U.S. government's official web portal to all federal, state and local government web resources and services.